[[{"header":{"parameterUnit":"m.s-1","parameterCategory":1,"la1":30.2991,"la2":30.254,"lo1":-89.0895,"lo2":-89.0444,"dy":0.0017,"dx":0.0017,"nx":28,"ny":28,"refTime":"2024-04-04T03:00:00:Z","depth":0,"parameterNumber":2,"parameterNumberName":"U-component_of_WINDS"},"data":[0,0,0,0,0,0,0,0,0,0,0,0,0,0,0,0,0,0,0,0,0,0,0,0,0,0,0,0,0,0,0,0,0,0,0,0,0,0,0,0,0,0,0,0,0,0,0,0,0,0,0,0,0,0,0,0,0,0,1.5282,1.5282,0,1.5338,1.5339,1.5339,1.5426,1.5427,1.5429,1.543,1.5486,1.5487,1.5487,0,0,0,0,0,0,0,0,0,0,0,0,0,1.5248,1.5248,1.5282,1.5282,1.5283,1.5338,1.5339,1.534,1.5425,1.5427,1.5429,1.5431,1.5486,1.5487,1.5487,0,0,0,0,0,0,0,0,0,0,0,0,0,1.5279,1.5248,1.5281,1.5332,1.5338,1.5338,1.5339,1.534,1.5425,1.5427,1.543,1.5432,1.5486,1.5487,1.5487,1.5441,0,0,1.5487,1.5487,0,0,0,0,0,0,0,0,1.5277,1.5281,1.5324,1.5329,1.5335,1.5377,1.5348,1.5374,1.5424,1.5392,1.543,1.5433,1.5448,1.5452,1.5457,1.5444,1.5446,1.5487,1.5487,1.5487,1.5487,0,0,0,0,0,0,0,1.5275,1.5279,1.5304,1.5325,1.5331,1.5353,1.536,1.5353,1.5406,1.5395,1.5401,1.5407,1.5451,1.5457,1.5459,1.5447,1.5487,1.5487,1.5487,1.5487,1.5401,1.5399,0,0,0,0,0,0,1.5266,1.5276,1.5302,1.5306,1.5311,1.5351,1.5359,1.5361,1.5407,1.5416,1.5405,1.5411,1.5455,1.5459,1.5461,1.5412,1.5487,1.5487,1.5487,1.5403,1.54,1.5398,0,0,0,0,0,0,1.5265,1.5267,1.53,1.5293,1.5299,1.5349,1.5351,1.5361,1.5366,1.5414,1.5424,1.54,1.5457,1.5461,1.5446,1.5415,1.5487,1.5487,1.5406,1.5402,1.5399,1.5311,0,0,0,0,0,0,1.5263,1.5266,1.5249,1.5292,1.5299,1.5283,1.5349,1.5361,1.5367,1.5375,1.5413,1.5421,1.5459,1.5445,1.5446,1.5416,1.5487,1.5409,1.5404,1.54,1.5317,1.5305,1.5295,0,0,0,0,0,1.5262,1.5222,1.5248,1.525,1.5278,1.5281,1.5285,1.533,1.5364,1.5347,1.5378,1.542,1.5418,1.5443,1.5444,1.5414,1.5411,1.5406,1.54,1.5322,1.5307,1.5295,0,0,0,0,0,0,1.5173,1.5228,1.5258,1.523,1.525,1.5296,1.5276,1.5313,1.5324,1.5331,1.5387,1.5395,1.5372,1.5392,1.5419,1.5373,1.5421,1.5416,1.5361,1.5348,1.5337,1.5332,1.5487,0,0,0,0,0,1.5151,1.5148,1.5197,1.5168,1.5176,1.5224,1.5227,1.5261,1.5284,1.5292,1.5322,1.5343,1.5347,1.5349,1.5355,1.5321,1.5331,1.5301,1.529,1.5281,1.5275,1.5259,1.5247,1.538,1.538,1.538,0,0,1.5103,1.5133,1.5128,1.5151,1.517,1.5167,1.5231,1.5224,1.5222,1.5291,1.5279,1.5302,1.5328,1.5303,1.5294,1.5319,1.5241,1.5274,1.5266,1.5266,1.5253,1.524,1.5229,1.5377,1.5377,1.5378,0,0,1.5016,1.5038,1.5017,1.5036,1.5065,1.5098,1.5092,1.5133,1.515,1.5139,1.5191,1.519,1.5196,1.5214,1.5223,1.5144,1.5183,1.5145,1.5086,1.507,1.506,1.5051,1.5023,1.5012,1.5139,1.5139,1.5139,0,1.4953,1.495,1.5001,1.4992,1.5,1.5064,1.5043,1.5059,1.5088,1.5093,1.5121,1.5131,1.5153,1.5134,1.5115,1.5121,1.5117,1.514,1.5057,1.5049,1.5041,1.5015,1.5004,1.5134,1.5135,1.5135,1.5136,0,1.4872,1.487,1.4849,1.4877,1.4883,1.4868,1.4917,1.4917,1.4951,1.498,1.4969,1.4998,1.5012,1.5011,1.5043,1.4996,1.5011,1.5047,1.5096,1.5023,1.4999,1.499,1.5127,1.5129,1.5131,1.5132,0,0,1.4729,1.4786,1.4778,1.4792,1.483,1.4829,1.4817,1.4832,1.4831,1.485,1.4842,1.4846,1.4881,1.4892,1.4927,1.4913,1.4849,1.4952,1.4953,1.4931,1.48,1.4772,1.476,1.4876,1.4874,1.4873,1.4798,0,1.4648,1.4631,1.4677,1.4649,1.4647,1.4709,1.4699,1.4721,1.4749,1.4752,1.4783,1.4786,1.4831,1.4838,1.4827,1.4859,1.4823,1.4865,1.4869,1.4868,1.4859,1.4747,1.4717,1.4645,1.4789,1.4788,1.4787,0,1.4552,1.4567,1.4538,1.4579,1.458,1.457,1.4588,1.459,1.4617,1.4639,1.4651,1.4693,1.4685,1.4733,1.4723,1.475,1.4754,1.477,1.4769,1.477,1.4822,1.4745,1.4623,1.4612,1.4773,1.4774,1.4775,0,1.445,1.4463,1.4447,1.4458,1.4505,1.4497,1.4516,1.4546,1.4552,1.4568,1.4573,1.4587,1.4595,1.4605,1.465,1.468,1.4634,1.4686,1.4652,1.4651,1.4638,1.4638,1.4514,1.4642,1.4642,1.4642,1.4643,0,1.4355,1.4334,1.4402,1.4393,1.4373,1.4427,1.4405,1.4431,1.4457,1.4454,1.4508,1.4504,1.4564,1.4566,1.4601,1.4588,1.4591,1.4608,1.4617,1.4603,1.46,1.4606,1.4611,1.464,1.464,1.4641,1.4641,0,1.4236,1.4281,1.4269,1.4315,1.4327,1.4309,1.435,1.4343,1.4375,1.4371,1.4373,1.4423,1.4429,1.4475,1.4492,1.4515,1.4489,1.4508,1.4479,1.4485,1.4449,1.4452,1.4323,1.431,1.4446,1.4445,1.4444,0,1.4172,1.4158,1.4204,1.4206,1.4223,1.4226,1.4233,1.4286,1.4291,1.4322,1.4312,1.4323,1.4334,1.4342,1.438,1.4393,1.4413,1.4367,1.4415,1.4401,1.4412,1.4412,1.4411,1.4356,1.4355,1.4353,1.4352,0,1.4054,1.4077,1.4085,1.4101,1.4109,1.4124,1.4143,1.4141,1.42,1.4204,1.4211,1.422,1.4238,1.4248,1.4268,1.4289,1.433,1.4337,1.433,1.4314,1.4298,1.4306,1.4451,1.4339,1.4341,1.4341,1.4342,1.4343,1.396,1.3951,1.3982,1.399,1.401,1.4027,1.4023,1.4056,1.4063,1.4081,1.4113,1.4116,1.4145,1.4177,1.4194,1.4198,1.4222,1.4211,1.4209,1.4205,1.4197,1.4298,1.4202,1.4202,1.4202,1.4203,1.4203,0,1.3845,1.3868,1.3875,1.39,1.3906,1.3946,1.3969,1.3972,1.3974,1.3998,1.4008,1.4017,1.4028,1.4068,1.4083,1.4078,1.4098,1.408,1.4081,1.4085,1.4175,1.4179,1.4064,1.4064,1.4064,1.4065,1.4065,1.4065,1.3785,1.3772,1.3799,1.3797,1.3821,1.3825,1.3834,1.385,1.387,1.3878,1.3887,1.3914,1.3944,1.3962,1.3974,1.3986,1.3989,1.3965,1.3982,1.4065,1.4079,1.4091,1.4096,1.3965,1.3965,1.3892,1.3892,1.3891]},{"header":{"parameterUnit":"m.s-1","parameterCategory":1,"la1":30.2991,"la2":30.254,"lo1":-89.0895,"lo2":-89.0444,"dy":0.0017,"dx":0.0017,"nx":28,"ny":28,"refTime":"2024-04-04T03:00:00:Z","depth":0,"parameterNumber":3,"parameterNumberName":"V-component_of_WINDS"},"data":[0,0,0,0,0,0,0,0,0,0,0,0,0,0,0,0,0,0,0,0,0,0,0,0,0,0,0,0,0,0,0,0,0,0,0,0,0,0,0,0,0,0,0,0,0,0,0,0,0,0,0,0,0,0,0,0,0,0,1.4302,1.4303,0,1.4402,1.4403,1.4404,1.4338,1.4334,1.4331,1.4328,1.4431,1.4437,1.4442,0,0,0,0,0,0,0,0,0,0,0,0,0,1.4049,1.4054,1.4302,1.4303,1.4304,1.4402,1.4403,1.4405,1.4338,1.4334,1.4331,1.4327,1.4429,1.4436,1.4443,0,0,0,0,0,0,0,0,0,0,0,0,0,1.4155,1.4056,1.4302,1.4283,1.4282,1.4402,1.4403,1.4405,1.4339,1.4334,1.433,1.4325,1.4427,1.4435,1.4444,1.4587,0,0,1.4469,1.4473,0,0,0,0,0,0,0,0,1.4149,1.4164,1.4284,1.4284,1.4284,1.4353,1.4352,1.4466,1.434,1.4317,1.4328,1.4323,1.4409,1.4418,1.4447,1.4592,1.4597,1.447,1.4475,1.4479,1.4481,0,0,0,0,0,0,0,1.4142,1.416,1.4341,1.4286,1.4286,1.4268,1.4278,1.4373,1.4388,1.4319,1.4314,1.4327,1.4408,1.4439,1.4449,1.4598,1.447,1.4477,1.4482,1.4486,1.4858,1.4863,0,0,0,0,0,0,1.4136,1.4154,1.4338,1.4344,1.4204,1.4276,1.4288,1.4335,1.4386,1.439,1.4331,1.4324,1.4427,1.444,1.4453,1.4619,1.4479,1.4486,1.4491,1.4853,1.4859,1.4865,0,0,0,0,0,0,1.4131,1.4154,1.4334,1.4248,1.427,1.4286,1.434,1.434,1.4371,1.4395,1.4397,1.4361,1.4424,1.4441,1.4553,1.4621,1.449,1.4498,1.4848,1.4855,1.4862,1.4955,0,0,0,0,0,0,1.4124,1.4152,1.4208,1.425,1.4275,1.4434,1.4344,1.4345,1.4386,1.4377,1.4424,1.4427,1.4422,1.454,1.4561,1.4631,1.4504,1.4842,1.4851,1.486,1.4946,1.4965,1.4981,0,0,0,0,0,1.4116,1.4232,1.4211,1.4234,1.4345,1.4438,1.4452,1.4444,1.4392,1.4446,1.4461,1.4426,1.4611,1.4553,1.4575,1.4648,1.4837,1.4848,1.4859,1.4938,1.4961,1.4981,0,0,0,0,0,0,1.4199,1.4237,1.4215,1.4348,1.439,1.4427,1.4496,1.4469,1.4527,1.4517,1.4504,1.4515,1.463,1.4651,1.4585,1.4786,1.4716,1.4732,1.4768,1.479,1.4807,1.4798,1.4511,0,0,0,0,0,1.4233,1.4306,1.4336,1.445,1.4472,1.4481,1.4522,1.4511,1.4554,1.4571,1.4595,1.4637,1.4704,1.4749,1.4813,1.495,1.4956,1.5011,1.5028,1.5042,1.5055,1.5123,1.5146,1.4901,1.49,1.49,0,0,1.4304,1.4334,1.4381,1.4468,1.4499,1.4573,1.4496,1.458,1.4633,1.4584,1.4689,1.4708,1.4754,1.4877,1.4933,1.4898,1.5124,1.5056,1.5068,1.5073,1.5136,1.5159,1.518,1.4908,1.4907,1.4905,0,0,1.447,1.4502,1.4598,1.463,1.4677,1.4681,1.4705,1.4745,1.4754,1.486,1.4822,1.4886,1.5004,1.5036,1.5069,1.5242,1.5209,1.5263,1.5353,1.5419,1.5438,1.5455,1.5511,1.5532,1.5277,1.5277,1.5277,0,1.4551,1.4662,1.4651,1.4735,1.4772,1.4729,1.4824,1.4856,1.4923,1.4948,1.4909,1.5051,1.5081,1.5207,1.5249,1.5279,1.5301,1.5256,1.5437,1.5453,1.5469,1.5522,1.5544,1.5283,1.5282,1.5281,1.5281,0,1.4757,1.4834,1.4906,1.4968,1.5014,1.5104,1.5104,1.5151,1.5136,1.5143,1.5248,1.5281,1.5348,1.5378,1.5365,1.5502,1.5478,1.5438,1.5366,1.5498,1.5548,1.5569,1.5291,1.5289,1.5287,1.5286,0,0,1.4979,1.5031,1.5057,1.5082,1.513,1.5188,1.5274,1.5338,1.5376,1.5424,1.5492,1.5591,1.5552,1.5588,1.5579,1.5637,1.5765,1.5589,1.559,1.5616,1.5911,1.5937,1.5961,1.5745,1.5749,1.5752,1.5905,0,1.5143,1.5291,1.5282,1.5421,1.5489,1.5448,1.5522,1.5558,1.5567,1.5624,1.5634,1.5701,1.5649,1.5669,1.5726,1.5737,1.5823,1.5727,1.5805,1.5808,1.579,1.5988,1.6017,1.616,1.5925,1.5928,1.5931,0,1.5354,1.5405,1.555,1.5582,1.561,1.5677,1.5731,1.5789,1.5827,1.5829,1.5868,1.5847,1.593,1.5858,1.597,1.5905,1.5936,1.5947,1.5952,1.5955,1.5874,1.5992,1.6206,1.6226,1.5962,1.596,1.5957,0,1.5493,1.5599,1.5698,1.5721,1.5763,1.581,1.5829,1.5863,1.59,1.5949,1.5972,1.603,1.6061,1.6105,1.6099,1.6048,1.6211,1.614,1.6211,1.6211,1.6245,1.6242,1.6462,1.6273,1.6273,1.6273,1.6272,0,1.5675,1.5764,1.576,1.5821,1.5918,1.5905,1.6001,1.6016,1.6045,1.6106,1.6076,1.6133,1.6123,1.618,1.6176,1.6266,1.6282,1.6283,1.628,1.6283,1.6282,1.6301,1.6289,1.6278,1.6277,1.6276,1.6275,0,1.5846,1.5848,1.5952,1.5981,1.5991,1.606,1.6085,1.614,1.6146,1.6222,1.6239,1.6247,1.6312,1.6311,1.6386,1.6382,1.6491,1.648,1.6477,1.6473,1.6542,1.6534,1.6778,1.6807,1.6604,1.6606,1.6608,0,1.5959,1.6026,1.6062,1.6099,1.6121,1.6184,1.622,1.621,1.6249,1.6295,1.6344,1.6406,1.6454,1.6558,1.657,1.6625,1.6611,1.6693,1.6619,1.6618,1.6606,1.66,1.6604,1.6706,1.6708,1.671,1.6712,0,1.6158,1.6154,1.6209,1.6262,1.6306,1.6348,1.6387,1.642,1.6413,1.6458,1.6523,1.656,1.6634,1.6693,1.6746,1.6764,1.6735,1.6735,1.6753,1.6755,1.6749,1.6747,1.6511,1.6729,1.6727,1.6726,1.6725,1.6724,1.63,1.6355,1.6387,1.6447,1.6475,1.651,1.6562,1.6572,1.6626,1.6684,1.6675,1.6746,1.6778,1.6845,1.6868,1.6922,1.6892,1.6921,1.6927,1.6933,1.6937,1.6744,1.6932,1.6931,1.6931,1.6931,1.693,0,1.6492,1.651,1.6566,1.6618,1.6665,1.6635,1.6674,1.6714,1.6777,1.6809,1.6856,1.6928,1.6985,1.7,1.7053,1.7093,1.7081,1.7107,1.7101,1.7105,1.6964,1.694,1.7115,1.7115,1.7115,1.7115,1.7115,1.7115,1.6597,1.6687,1.6687,1.6788,1.6805,1.6874,1.6898,1.6929,1.6954,1.7035,1.7082,1.7091,1.7115,1.717,1.7219,1.7221,1.724,1.7271,1.7268,1.7134,1.7116,1.7098,1.7075,1.7276,1.7276,1.7404,1.7405,1.7406]}]]